sat.trackr.live / text

‹ back to catalog

STARLINK-11629 [DTC]

NORAD 63104 · 2025-039A

PAYLOAD ACTIVE UNKNOWN

§ Identity

Operator
Country
US
Launch date
2025-02-27
Launch site
AFETR
Launch vehicle
Mass (kg)
RCS (m²)

Purposes: comms

External: N2YO · Heavens-Above · Gunter

§ Orbital elements

Epoch: 2026-09-20T00:50:50.275104Z

Period
91.66 min
Inclination
43.0011°
Eccentricity
0.0003307
Mean motion
15.70942997 rev/d
Perigee alt
354.0 km
Apogee alt
358.4 km
Semi-major
6,734.3 km
B*
1.0000e-3
RAAN
145.1597°
Arg perigee
263.6347°
Mean anomaly
96.4144°
Rev number
9,018

§ Raw data

STARLINK-11629 [DTC]1 63104U 25039A   26263.03530411  .00130486  00000+0  10000-2 0  99932 63104  43.0011 145.1597 0003307 263.6347  96.4144 15.70942997 90180

JSON: /api/v1/satellites/63104 · /tle

For live sub-satellite position, see the globe view (requires WebGL).

§ Visibility from observer

Set your observer location to see the next 7 days of passes ≥ 10°. The values pass through the URL so the page stays shareable.

No JS? Fill the form by hand. The geolocation button needs JavaScript.